Location: Arleux
(50.3632°N, 2.8721°E)
Time: 07:45:13
(UTC+00:00)

ADEOS Rocket - Pass Details

Date: 15 December 2019
Orbit: 859 x 1307 km, 98.7° (Epoch: 29 January)

Event Time Altitude Azimuth Distance (km) Brightness Sun altitude
Rises 05:52:29 0° 158° (SSE) 3,980 6.8 -16.3°
Reaches altitude 10° 05:55:10 10° 157° (SSE) 2,961 6.1 -15.9°
Maximum altitude 06:01:50 80° 72° (ENE) 1,041 3.2 -14.9°
Drops below altitude 10° 06:07:50 10° 347° (NNW) 2,681 5.0 -14.0°
Sets 06:10:10 0° 346° (NNW) 3,583 5.6 -13.6°
